Year,Month,Day,Hour,Minute,Value (Times are PST for temperature in C)
2012,07,12,07,02,13.70
2012,07,12,07,03,13.70
2012,07,12,07,04,13.80
2012,07,12,07,05,13.80
2012,07,12,07,06,13.90
2012,07,12,07,07,14.00
2012,07,12,07,08,14.00
2012,07,12,07,09,14.10
2012,07,12,07,10,14.20
2012,07,12,07,11,14.30
2012,07,12,07,12,14.30
2012,07,12,07,13,14.40
2012,07,12,07,14,14.50
2012,07,12,07,15,14.60
2012,07,12,07,16,14.70
2012,07,12,07,17,14.80
2012,07,12,07,18,14.80
2012,07,12,07,19,14.90
2012,07,12,07,20,14.90
2012,07,12,07,21,15.00
2012,07,12,07,22,15.10
2012,07,12,07,23,15.10
2012,07,12,07,24,15.20
2012,07,12,07,25,15.20
2012,07,12,07,26,15.30
2012,07,12,07,27,15.30
2012,07,12,07,28,15.40
2012,07,12,07,29,15.40
2012,07,12,07,30,15.50
2012,07,12,07,31,15.50
2012,07,12,07,32,15.60
2012,07,12,07,33,15.60
2012,07,12,07,34,15.60
2012,07,12,07,35,15.70
2012,07,12,07,36,15.70
2012,07,12,07,37,15.80
2012,07,12,07,38,15.80
2012,07,12,07,39,15.80
2012,07,12,07,40,15.90
2012,07,12,07,41,15.90
2012,07,12,07,42,15.90
2012,07,12,07,43,15.90
2012,07,12,07,44,15.90
2012,07,12,07,45,15.90
2012,07,12,07,46,16.00
2012,07,12,07,47,16.00
2012,07,12,07,48,16.10
2012,07,12,07,49,16.20
2012,07,12,07,50,16.30
2012,07,12,07,51,16.30
2012,07,12,07,52,16.30
2012,07,12,07,53,16.30
2012,07,12,07,54,16.40
2012,07,12,07,55,16.40
2012,07,12,07,56,16.50
2012,07,12,07,57,16.50
2012,07,12,07,58,16.60
2012,07,12,07,59,16.60
2012,07,12,08,00,16.60
2012,07,12,08,01,16.70
2012,07,12,08,02,16.70
2012,07,12,08,03,16.70
2012,07,12,08,04,16.70
2012,07,12,08,05,16.80
2012,07,12,08,06,16.80
2012,07,12,08,07,16.80
2012,07,12,08,08,16.90
2012,07,12,08,09,17.00
2012,07,12,08,10,17.10
2012,07,12,08,11,17.10
2012,07,12,08,12,17.20
2012,07,12,08,13,17.20
2012,07,12,08,14,17.30
2012,07,12,08,15,17.40
2012,07,12,08,16,17.40
2012,07,12,08,17,17.50
2012,07,12,08,18,17.60
2012,07,12,08,19,17.60
2012,07,12,08,20,17.70
2012,07,12,08,21,17.80
2012,07,12,08,22,17.90
2012,07,12,08,23,17.90
2012,07,12,08,24,18.00
2012,07,12,08,25,18.00
2012,07,12,08,26,18.10
2012,07,12,08,27,18.10
2012,07,12,08,28,18.10
2012,07,12,08,29,18.20
2012,07,12,08,30,18.20
2012,07,12,08,31,18.30
2012,07,12,08,32,18.30
2012,07,12,08,33,18.40
2012,07,12,08,34,18.40
2012,07,12,08,35,18.50
2012,07,12,08,36,18.60
2012,07,12,08,37,18.60
2012,07,12,08,38,18.60
2012,07,12,08,39,18.60
2012,07,12,08,40,18.70
2012,07,12,08,41,18.70
2012,07,12,08,42,18.70
2012,07,12,08,43,18.70
2012,07,12,08,44,18.70
2012,07,12,08,45,18.60
2012,07,12,08,46,18.60
2012,07,12,08,47,18.60
2012,07,12,08,48,18.60
2012,07,12,08,49,18.70
2012,07,12,08,50,18.80
2012,07,12,08,51,18.80
2012,07,12,08,52,18.80
2012,07,12,08,53,18.80
2012,07,12,08,54,18.80
2012,07,12,08,55,18.90
2012,07,12,08,56,18.90
2012,07,12,08,57,18.90
2012,07,12,08,58,18.90
2012,07,12,08,59,18.90
2012,07,12,09,00,18.90
2012,07,12,09,01,18.90
2012,07,12,09,02,18.90
2012,07,12,09,03,18.90
2012,07,12,09,04,18.90
2012,07,12,09,05,18.90
2012,07,12,09,06,19.00
2012,07,12,09,07,19.00
2012,07,12,09,08,19.00
2012,07,12,09,09,19.10
2012,07,12,09,10,19.10
2012,07,12,09,11,19.10
2012,07,12,09,12,19.20
2012,07,12,09,13,19.20
2012,07,12,09,14,19.20
2012,07,12,09,15,19.20
2012,07,12,09,16,19.30
2012,07,12,09,17,19.30
2012,07,12,09,18,19.40
2012,07,12,09,19,19.40
2012,07,12,09,20,19.50
2012,07,12,09,21,19.50
2012,07,12,09,22,19.60
2012,07,12,09,23,19.70
2012,07,12,09,24,19.70
2012,07,12,09,25,19.80
2012,07,12,09,26,19.80
2012,07,12,09,27,19.80
2012,07,12,09,28,19.80
2012,07,12,09,29,19.90
2012,07,12,09,30,19.90
2012,07,12,09,31,20.00
2012,07,12,09,32,20.00
2012,07,12,09,33,20.10
2012,07,12,09,34,20.10
2012,07,12,09,35,20.20
2012,07,12,09,36,20.20
2012,07,12,09,37,20.20
2012,07,12,09,38,20.30
2012,07,12,09,39,20.30
2012,07,12,09,40,20.40
2012,07,12,09,41,20.50
2012,07,12,09,42,20.60
2012,07,12,09,43,20.70
2012,07,12,09,44,20.70
2012,07,12,09,45,20.80
2012,07,12,09,46,20.90
2012,07,12,09,47,20.90
2012,07,12,09,48,21.00
2012,07,12,09,49,21.00
2012,07,12,09,50,21.00
2012,07,12,09,51,21.10
2012,07,12,09,52,21.10
2012,07,12,09,53,21.10
2012,07,12,09,54,21.10
2012,07,12,09,55,21.10
2012,07,12,09,56,21.10
2012,07,12,09,57,21.10
2012,07,12,09,58,21.10
2012,07,12,09,59,21.00
2012,07,12,10,00,21.00
2012,07,12,10,01,20.90
2012,07,12,10,02,20.90
2012,07,12,10,03,20.90
2012,07,12,10,04,21.00
2012,07,12,10,05,21.00
2012,07,12,10,06,21.10
2012,07,12,10,07,21.10
2012,07,12,10,08,21.10
2012,07,12,10,09,21.10
2012,07,12,10,10,21.10
2012,07,12,10,11,21.10
2012,07,12,10,12,21.10
2012,07,12,10,13,21.10
2012,07,12,10,14,21.10
2012,07,12,10,15,21.10
2012,07,12,10,16,21.10
2012,07,12,10,17,21.10
2012,07,12,10,18,21.00
2012,07,12,10,19,21.00
2012,07,12,10,20,21.00
2012,07,12,10,21,21.00
2012,07,12,10,22,20.90
2012,07,12,10,23,20.80
2012,07,12,10,24,20.80
2012,07,12,10,25,20.70
2012,07,12,10,26,20.60
2012,07,12,10,27,20.50
2012,07,12,10,28,20.40
2012,07,12,10,29,20.30
2012,07,12,10,30,20.20
2012,07,12,10,31,20.20
2012,07,12,10,32,20.20
2012,07,12,10,33,20.10
2012,07,12,10,34,20.00
2012,07,12,10,35,20.00
2012,07,12,10,36,19.90
2012,07,12,10,37,19.90
2012,07,12,10,38,19.80
2012,07,12,10,39,19.80
2012,07,12,10,40,19.80
2012,07,12,10,41,19.80
2012,07,12,10,42,19.80
2012,07,12,10,43,19.80
2012,07,12,10,44,19.80
2012,07,12,10,45,19.80
2012,07,12,10,46,19.80
2012,07,12,10,47,19.80
2012,07,12,10,48,19.80
2012,07,12,10,49,19.80
2012,07,12,10,50,19.70
2012,07,12,10,51,19.70
2012,07,12,10,52,19.80
2012,07,12,10,53,19.80
2012,07,12,10,54,19.90
2012,07,12,10,55,19.90
2012,07,12,10,56,20.00
2012,07,12,10,57,20.10
2012,07,12,10,58,20.20
2012,07,12,10,59,20.30
2012,07,12,11,00,20.30
2012,07,12,11,01,20.30
2012,07,12,11,02,20.30
2012,07,12,11,03,20.30
2012,07,12,11,04,20.30
2012,07,12,11,05,20.30
2012,07,12,11,06,20.30
2012,07,12,11,07,20.30
2012,07,12,11,08,20.30
2012,07,12,11,09,20.30
2012,07,12,11,10,20.40
2012,07,12,11,11,20.40
2012,07,12,11,12,20.50
2012,07,12,11,13,20.50
2012,07,12,11,14,20.60
2012,07,12,11,15,20.70
2012,07,12,11,16,20.70
2012,07,12,11,17,20.80
2012,07,12,11,18,20.90
2012,07,12,11,19,20.90
2012,07,12,11,20,21.00
2012,07,12,11,21,21.00
2012,07,12,11,22,21.10
2012,07,12,11,23,21.10
2012,07,12,11,24,21.20
2012,07,12,11,25,21.30
2012,07,12,11,26,21.40
2012,07,12,11,27,21.50
2012,07,12,11,28,21.50
2012,07,12,11,29,21.60
2012,07,12,11,30,21.60
2012,07,12,11,31,21.70
2012,07,12,11,32,21.70
2012,07,12,11,33,21.70
2012,07,12,11,34,21.80
2012,07,12,11,35,21.80
2012,07,12,11,36,21.80
2012,07,12,11,37,21.80
2012,07,12,11,38,21.80
2012,07,12,11,39,21.80
2012,07,12,11,40,21.80
2012,07,12,11,41,21.80
2012,07,12,11,42,21.80
2012,07,12,11,43,21.80
2012,07,12,11,44,21.80
2012,07,12,11,45,21.80
2012,07,12,11,46,21.70
2012,07,12,11,47,21.70
2012,07,12,11,48,21.80
2012,07,12,11,49,21.80
2012,07,12,11,50,21.80
2012,07,12,11,51,21.90
2012,07,12,11,52,21.90
2012,07,12,11,53,21.90
2012,07,12,11,54,21.90
2012,07,12,11,55,21.90
2012,07,12,11,56,22.00
2012,07,12,11,57,22.00
2012,07,12,11,58,22.00
2012,07,12,11,59,22.10
2012,07,12,12,00,22.10
2012,07,12,12,01,22.10
2012,07,12,12,02,22.20
2012,07,12,12,03,22.10
2012,07,12,12,04,22.10
2012,07,12,12,05,22.10
2012,07,12,12,06,22.10
2012,07,12,12,07,22.10
2012,07,12,12,08,22.10
2012,07,12,12,09,22.10
2012,07,12,12,10,22.10
2012,07,12,12,11,22.00
2012,07,12,12,12,22.00
2012,07,12,12,13,21.90
2012,07,12,12,14,21.80
2012,07,12,12,15,21.80
2012,07,12,12,16,21.80
2012,07,12,12,17,21.70
2012,07,12,12,18,21.70
2012,07,12,12,19,21.60
2012,07,12,12,20,21.50
2012,07,12,12,21,21.40
2012,07,12,12,22,21.30
2012,07,12,12,23,21.20
2012,07,12,12,24,21.10
2012,07,12,12,25,21.10
2012,07,12,12,26,21.00
2012,07,12,12,27,21.00
2012,07,12,12,28,20.90
2012,07,12,12,29,20.90
2012,07,12,12,30,20.90
2012,07,12,12,31,20.80
2012,07,12,12,32,20.80
2012,07,12,12,33,20.80
2012,07,12,12,34,20.80
2012,07,12,12,35,20.80
2012,07,12,12,36,20.80
2012,07,12,12,37,20.90
2012,07,12,12,38,20.90
2012,07,12,12,39,21.00
2012,07,12,12,40,21.00
2012,07,12,12,41,20.90
2012,07,12,12,42,20.90
2012,07,12,12,43,20.90
2012,07,12,12,44,20.80
2012,07,12,12,45,20.80
2012,07,12,12,46,20.70
2012,07,12,12,47,20.70
2012,07,12,12,48,20.60
2012,07,12,12,49,20.60
2012,07,12,12,50,20.60
2012,07,12,12,51,20.60
2012,07,12,12,52,20.60
2012,07,12,12,53,20.60
2012,07,12,12,54,20.70
2012,07,12,12,55,20.70
2012,07,12,12,56,20.80
2012,07,12,12,57,20.90
2012,07,12,12,58,21.00
2012,07,12,12,59,21.10
2012,07,12,13,00,21.10
2012,07,12,13,01,21.20
2012,07,12,13,02,21.20
2012,07,12,13,03,21.20
2012,07,12,13,04,21.20
2012,07,12,13,05,21.20
2012,07,12,13,06,21.20
2012,07,12,13,07,21.20
2012,07,12,13,08,21.10
2012,07,12,13,09,21.00
2012,07,12,13,10,20.90
2012,07,12,13,11,20.90
2012,07,12,13,12,20.90
2012,07,12,13,13,20.80
2012,07,12,13,14,20.80
2012,07,12,13,15,20.80
2012,07,12,13,16,20.80
2012,07,12,13,17,20.80
2012,07,12,13,18,20.80
2012,07,12,13,19,20.80
2012,07,12,13,20,20.80
2012,07,12,13,21,20.80
2012,07,12,13,22,20.90
2012,07,12,13,23,20.90
2012,07,12,13,24,21.00
2012,07,12,13,25,21.00
2012,07,12,13,26,21.00
2012,07,12,13,27,21.00
2012,07,12,13,28,21.00
2012,07,12,13,29,21.00
2012,07,12,13,30,21.00
2012,07,12,13,31,20.90
2012,07,12,13,32,21.00
2012,07,12,13,33,21.10
2012,07,12,13,34,21.10
2012,07,12,13,35,21.10
2012,07,12,13,36,21.00
2012,07,12,13,37,21.00
2012,07,12,13,38,20.90
2012,07,12,13,39,20.90
2012,07,12,13,40,20.90
2012,07,12,13,41,20.90
2012,07,12,13,42,21.00
2012,07,12,13,43,21.00
2012,07,12,13,44,21.00
2012,07,12,13,45,21.00
2012,07,12,13,46,21.00
2012,07,12,13,47,21.10
2012,07,12,13,48,21.10
2012,07,12,13,49,21.10
2012,07,12,13,50,21.10
2012,07,12,13,51,21.10
2012,07,12,13,52,21.10
2012,07,12,13,53,21.00
2012,07,12,13,54,21.00
2012,07,12,13,55,21.00
2012,07,12,13,56,21.10
2012,07,12,13,57,21.10
2012,07,12,13,58,21.10
2012,07,12,13,59,21.10
2012,07,12,14,00,21.10
2012,07,12,14,01,21.10
2012,07,12,14,02,21.20
2012,07,12,14,03,21.30
2012,07,12,14,04,21.30
2012,07,12,14,05,21.30
2012,07,12,14,06,21.30
2012,07,12,14,07,21.30
2012,07,12,14,08,21.30
2012,07,12,14,09,21.30
2012,07,12,14,10,21.30
2012,07,12,14,11,21.30
2012,07,12,14,12,21.30
2012,07,12,14,13,21.40
2012,07,12,14,14,21.40
2012,07,12,14,15,21.50
2012,07,12,14,16,21.50
2012,07,12,14,17,21.60
2012,07,12,14,18,21.60
2012,07,12,14,19,21.60
2012,07,12,14,20,21.60
2012,07,12,14,21,21.70
2012,07,12,14,22,21.70
2012,07,12,14,23,21.70
2012,07,12,14,24,21.70
2012,07,12,14,25,21.70
2012,07,12,14,26,21.70
2012,07,12,14,27,21.60
2012,07,12,14,28,21.60
2012,07,12,14,29,21.50
2012,07,12,14,30,21.50
2012,07,12,14,31,21.40
2012,07,12,14,32,21.40
2012,07,12,14,33,21.40
2012,07,12,14,34,21.50
2012,07,12,14,35,21.50
2012,07,12,14,36,21.50
2012,07,12,14,37,21.60
2012,07,12,14,38,21.60
2012,07,12,14,39,21.50
2012,07,12,14,40,21.40
2012,07,12,14,41,21.40
2012,07,12,14,42,21.30
2012,07,12,14,43,21.30
2012,07,12,14,44,21.30
2012,07,12,14,45,21.30
2012,07,12,14,46,21.30
2012,07,12,14,47,21.40
2012,07,12,14,48,21.50
2012,07,12,14,49,21.50
2012,07,12,14,50,21.60
2012,07,12,14,51,21.60
2012,07,12,14,52,21.60
2012,07,12,14,53,21.70
2012,07,12,14,54,21.70
2012,07,12,14,55,21.70
2012,07,12,14,56,21.80
2012,07,12,14,57,21.80
2012,07,12,14,58,21.80
2012,07,12,14,59,21.90
2012,07,12,15,00,21.90
2012,07,12,15,01,21.90
2012,07,12,15,02,21.90
2012,07,12,15,03,21.90
2012,07,12,15,04,22.00
2012,07,12,15,05,22.00
2012,07,12,15,06,22.00
2012,07,12,15,07,22.00
2012,07,12,15,08,22.10
2012,07,12,15,09,22.10
2012,07,12,15,10,22.10
2012,07,12,15,11,22.10
2012,07,12,15,12,22.10
2012,07,12,15,13,22.20
2012,07,12,15,14,22.20
2012,07,12,15,15,22.30
2012,07,12,15,16,22.30
2012,07,12,15,17,22.30
2012,07,12,15,18,22.30
2012,07,12,15,19,22.30
2012,07,12,15,20,22.30
2012,07,12,15,21,22.30
2012,07,12,15,22,22.30
2012,07,12,15,23,22.30
2012,07,12,15,24,22.30
2012,07,12,15,25,22.20
2012,07,12,15,26,22.20
2012,07,12,15,27,22.20
2012,07,12,15,28,22.30
2012,07,12,15,29,22.30
2012,07,12,15,30,22.30
2012,07,12,15,31,22.30
2012,07,12,15,32,22.40
2012,07,12,15,33,22.40
2012,07,12,15,34,22.40
2012,07,12,15,35,22.40
2012,07,12,15,36,22.50
2012,07,12,15,37,22.60
2012,07,12,15,38,22.60
2012,07,12,15,39,22.70
2012,07,12,15,40,22.70
2012,07,12,15,41,22.70
2012,07,12,15,42,22.70
2012,07,12,15,43,22.70
2012,07,12,15,44,22.70
2012,07,12,15,45,22.60
2012,07,12,15,46,22.60
2012,07,12,15,47,22.60
2012,07,12,15,48,22.50
2012,07,12,15,49,22.50
2012,07,12,15,50,22.50
2012,07,12,15,51,22.50
2012,07,12,15,52,22.40
2012,07,12,15,53,22.40
2012,07,12,15,54,22.40
2012,07,12,15,55,22.30
2012,07,12,15,56,22.30
2012,07,12,15,57,22.30
2012,07,12,15,58,22.40
2012,07,12,15,59,22.40
2012,07,12,16,00,22.50
2012,07,12,16,01,22.50
2012,07,12,16,02,22.60
2012,07,12,16,03,22.60
2012,07,12,16,04,22.70
2012,07,12,16,05,22.80
2012,07,12,16,06,22.80
2012,07,12,16,07,22.80
2012,07,12,16,08,22.90
2012,07,12,16,09,22.90
2012,07,12,16,10,23.00
2012,07,12,16,11,23.00
2012,07,12,16,12,23.00
2012,07,12,16,13,23.00
2012,07,12,16,14,23.00
2012,07,12,16,15,23.10
2012,07,12,16,16,23.10
2012,07,12,16,17,23.10
2012,07,12,16,18,23.10
2012,07,12,16,19,23.20
2012,07,12,16,20,23.20
2012,07,12,16,21,23.20
2012,07,12,16,22,23.20
2012,07,12,16,23,23.20
2012,07,12,16,24,23.20
2012,07,12,16,25,23.20
2012,07,12,16,26,23.20
2012,07,12,16,27,23.20
2012,07,12,16,28,23.20
2012,07,12,16,29,23.10
2012,07,12,16,30,23.10
2012,07,12,16,31,23.10
2012,07,12,16,32,23.00
2012,07,12,16,33,23.00
2012,07,12,16,34,23.00
2012,07,12,16,35,23.00
2012,07,12,16,36,23.10
2012,07,12,16,37,23.10
2012,07,12,16,38,23.20
2012,07,12,16,39,23.20
2012,07,12,16,40,23.20
2012,07,12,16,41,23.20
2012,07,12,16,42,23.20
2012,07,12,16,43,23.10
2012,07,12,16,44,23.00
2012,07,12,16,45,22.90
2012,07,12,16,46,22.70
2012,07,12,16,47,22.60
2012,07,12,16,48,22.50
2012,07,12,16,49,22.40
2012,07,12,16,50,22.40
2012,07,12,16,51,22.30
2012,07,12,16,52,22.30
2012,07,12,16,53,22.30
2012,07,12,16,54,22.30
2012,07,12,16,55,22.30
2012,07,12,16,56,22.30
2012,07,12,16,57,22.30
2012,07,12,16,58,22.30
2012,07,12,16,59,22.30
2012,07,12,17,00,22.30
2012,07,12,17,01,22.30
2012,07,12,17,02,22.30
2012,07,12,17,03,22.30
2012,07,12,17,04,22.20
2012,07,12,17,05,22.20
2012,07,12,17,06,22.30
2012,07,12,17,07,22.30
2012,07,12,17,08,22.30
2012,07,12,17,09,22.40
2012,07,12,17,10,22.40
2012,07,12,17,11,22.40
2012,07,12,17,12,22.40
2012,07,12,17,13,22.50
2012,07,12,17,14,22.50
2012,07,12,17,15,22.50
2012,07,12,17,16,22.60
2012,07,12,17,17,22.60
2012,07,12,17,18,22.70
2012,07,12,17,19,22.80
2012,07,12,17,20,22.80
2012,07,12,17,21,22.80
2012,07,12,17,22,22.80
2012,07,12,17,23,22.80
2012,07,12,17,24,22.80
2012,07,12,17,25,22.80
2012,07,12,17,26,22.80
2012,07,12,17,27,22.80
2012,07,12,17,28,22.80
2012,07,12,17,29,22.80
2012,07,12,17,30,22.80
2012,07,12,17,31,22.90
2012,07,12,17,32,22.80
2012,07,12,17,33,22.80
2012,07,12,17,34,22.70
2012,07,12,17,35,22.70
2012,07,12,17,36,22.60
2012,07,12,17,37,22.50
2012,07,12,17,38,22.50
2012,07,12,17,39,22.40
2012,07,12,17,40,22.30
2012,07,12,17,41,22.20
2012,07,12,17,42,22.20
2012,07,12,17,43,22.10
2012,07,12,17,44,22.00
2012,07,12,17,45,22.00
2012,07,12,17,46,21.90
2012,07,12,17,47,21.80
2012,07,12,17,48,21.70
2012,07,12,17,49,21.70
2012,07,12,17,50,21.60
2012,07,12,17,51,21.60
2012,07,12,17,52,21.60
2012,07,12,17,53,21.50
2012,07,12,17,54,21.50
2012,07,12,17,55,21.40
2012,07,12,17,56,21.40
2012,07,12,17,57,21.40
2012,07,12,17,58,21.30
2012,07,12,17,59,21.40
2012,07,12,18,00,21.40
2012,07,12,18,01,21.40
2012,07,12,18,02,21.40
2012,07,12,18,03,21.50
2012,07,12,18,04,21.50
2012,07,12,18,05,21.60
2012,07,12,18,06,21.60
2012,07,12,18,07,21.60
2012,07,12,18,08,21.60
2012,07,12,18,09,21.60
2012,07,12,18,10,21.70
2012,07,12,18,11,21.70
2012,07,12,18,12,21.80
2012,07,12,18,13,21.80
2012,07,12,18,14,21.90
2012,07,12,18,15,21.90
2012,07,12,18,16,22.00
2012,07,12,18,17,22.00
2012,07,12,18,18,22.00
2012,07,12,18,19,22.10
2012,07,12,18,20,22.10
2012,07,12,18,21,22.10
2012,07,12,18,22,22.20
2012,07,12,18,23,22.20
2012,07,12,18,24,22.20
2012,07,12,18,25,22.20
2012,07,12,18,26,22.20
2012,07,12,18,27,22.20
2012,07,12,18,28,22.30
2012,07,12,18,29,22.30
2012,07,12,18,30,22.30
2012,07,12,18,31,22.40
2012,07,12,18,32,22.40
2012,07,12,18,33,22.40
2012,07,12,18,34,22.40
2012,07,12,18,35,22.50
2012,07,12,18,36,22.50
2012,07,12,18,37,22.50
2012,07,12,18,38,22.50
2012,07,12,18,39,22.50
2012,07,12,18,40,22.40
2012,07,12,18,41,22.40
2012,07,12,18,42,22.30
2012,07,12,18,43,22.30
2012,07,12,18,44,22.30
2012,07,12,18,45,22.30
2012,07,12,18,46,22.30
2012,07,12,18,47,22.30
2012,07,12,18,48,22.30
2012,07,12,18,49,22.30
2012,07,12,18,50,22.40
2012,07,12,18,51,22.40
2012,07,12,18,52,22.40
2012,07,12,18,53,22.50
2012,07,12,18,54,22.50
2012,07,12,18,55,22.60
2012,07,12,18,56,22.60
2012,07,12,18,57,22.60
2012,07,12,18,58,22.70
2012,07,12,18,59,22.70
2012,07,12,19,00,22.80
2012,07,12,19,01,22.80
2012,07,12,19,02,22.80
2012,07,12,19,03,22.80
2012,07,12,19,04,22.90
2012,07,12,19,05,22.90
2012,07,12,19,06,22.90
2012,07,12,19,07,23.00
2012,07,12,19,08,23.00
2012,07,12,19,09,23.10
2012,07,12,19,10,23.10
2012,07,12,19,11,23.20
2012,07,12,19,12,23.20
2012,07,12,19,13,23.20
2012,07,12,19,14,23.30
2012,07,12,19,15,23.30
2012,07,12,19,16,23.30
2012,07,12,19,17,23.30
2012,07,12,19,18,23.30
2012,07,12,19,19,23.40
2012,07,12,19,20,23.40
2012,07,12,19,21,23.40
2012,07,12,19,22,23.40
2012,07,12,19,23,23.40
2012,07,12,19,24,23.40
2012,07,12,19,25,23.50
2012,07,12,19,26,23.50
2012,07,12,19,27,23.50
2012,07,12,19,28,23.50
2012,07,12,19,29,23.50
2012,07,12,19,30,23.50
2012,07,12,19,31,23.60
2012,07,12,19,32,23.60
2012,07,12,19,33,23.60
2012,07,12,19,34,23.60
2012,07,12,19,35,23.70
2012,07,12,19,36,23.70
2012,07,12,19,37,23.80
2012,07,12,19,38,23.80
2012,07,12,19,39,23.90
2012,07,12,19,40,23.90
2012,07,12,19,41,23.90
2012,07,12,19,42,24.00
2012,07,12,19,43,24.00
2012,07,12,19,44,24.10
2012,07,12,19,45,24.10
2012,07,12,19,46,24.10
2012,07,12,19,47,24.10
2012,07,12,19,48,24.20
2012,07,12,19,49,24.20
2012,07,12,19,50,24.20
2012,07,12,19,51,24.20
2012,07,12,19,52,24.20
2012,07,12,19,53,24.20
2012,07,12,19,54,24.20
2012,07,12,19,55,24.20
2012,07,12,19,56,24.20
2012,07,12,19,57,24.20
2012,07,12,19,58,24.20
2012,07,12,19,59,24.10
2012,07,12,20,00,24.10
2012,07,12,20,01,24.10
2012,07,12,20,02,24.10
2012,07,12,20,03,24.10
2012,07,12,20,04,24.10
2012,07,12,20,05,24.10
2012,07,12,20,06,24.10
2012,07,12,20,07,24.10
2012,07,12,20,08,24.10
2012,07,12,20,09,24.10
2012,07,12,20,10,24.10
2012,07,12,20,11,24.00
2012,07,12,20,12,24.00
2012,07,12,20,13,24.00
2012,07,12,20,14,24.00
2012,07,12,20,15,24.00
2012,07,12,20,16,24.00
2012,07,12,20,17,23.90
2012,07,12,20,18,23.90
2012,07,12,20,19,23.90
2012,07,12,20,20,23.90
2012,07,12,20,21,23.90
2012,07,12,20,22,23.90
2012,07,12,20,23,23.90
2012,07,12,20,24,23.90
2012,07,12,20,25,23.80
2012,07,12,20,26,23.80
2012,07,12,20,27,23.80
2012,07,12,20,28,23.80
2012,07,12,20,29,23.80
2012,07,12,20,30,23.80
2012,07,12,20,31,23.80
2012,07,12,20,32,23.70
2012,07,12,20,33,23.70
2012,07,12,20,34,23.60
2012,07,12,20,35,23.60
2012,07,12,20,36,23.50
2012,07,12,20,37,23.50
2012,07,12,20,38,23.40
2012,07,12,20,39,23.30
2012,07,12,20,40,23.30
2012,07,12,20,41,23.30
2012,07,12,20,42,23.20
2012,07,12,20,43,23.20
2012,07,12,20,44,23.10
2012,07,12,20,45,23.10
2012,07,12,20,46,23.10
2012,07,12,20,47,23.00
2012,07,12,20,48,22.90
2012,07,12,20,49,22.90
2012,07,12,20,50,22.90
2012,07,12,20,51,22.80
2012,07,12,20,52,22.80
2012,07,12,20,53,22.80
2012,07,12,20,54,22.80
2012,07,12,20,55,22.70
2012,07,12,20,56,22.70
2012,07,12,20,57,22.70
2012,07,12,20,58,22.60
2012,07,12,20,59,22.60
2012,07,12,21,00,22.60
2012,07,12,21,01,22.50
2012,07,12,21,02,22.50
2012,07,12,21,03,22.40
2012,07,12,21,04,22.40
2012,07,12,21,05,22.40
2012,07,12,21,06,22.30
2012,07,12,21,07,22.30
2012,07,12,21,08,22.20
2012,07,12,21,09,22.20
2012,07,12,21,10,22.20
2012,07,12,21,11,22.10
2012,07,12,21,12,22.10
2012,07,12,21,13,22.10
2012,07,12,21,14,22.00
2012,07,12,21,15,22.00
2012,07,12,21,16,21.90
2012,07,12,21,17,21.90
2012,07,12,21,18,21.90
2012,07,12,21,19,21.90
2012,07,12,21,20,21.90
2012,07,12,21,21,21.90
2012,07,12,21,22,21.80
2012,07,12,21,23,21.80
2012,07,12,21,24,21.80
2012,07,12,21,25,21.80
2012,07,12,21,26,21.80
2012,07,12,21,27,21.80
2012,07,12,21,28,21.80
2012,07,12,21,29,21.80
2012,07,12,21,30,21.80
2012,07,12,21,31,21.80
2012,07,12,21,32,21.70
2012,07,12,21,33,21.70
2012,07,12,21,34,21.70
2012,07,12,21,35,21.70
2012,07,12,21,36,21.70
2012,07,12,21,37,21.70
2012,07,12,21,38,21.70
2012,07,12,21,39,21.70
2012,07,12,21,40,21.70
2012,07,12,21,41,21.70
2012,07,12,21,42,21.70
2012,07,12,21,43,21.70
2012,07,12,21,44,21.60
2012,07,12,21,45,21.60
2012,07,12,21,46,21.60
2012,07,12,21,47,21.50
2012,07,12,21,48,21.50
2012,07,12,21,49,21.40
2012,07,12,21,50,21.30
2012,07,12,21,51,21.20
2012,07,12,21,52,21.10
2012,07,12,21,53,21.00
2012,07,12,21,54,20.90
2012,07,12,21,55,20.80
2012,07,12,21,56,20.60
2012,07,12,21,57,20.50
2012,07,12,21,58,20.40
2012,07,12,21,59,20.20
2012,07,12,22,00,20.10
2012,07,12,22,01,19.90
2012,07,12,22,02,19.80
2012,07,12,22,03,19.70
2012,07,12,22,04,19.50
2012,07,12,22,05,19.40
2012,07,12,22,06,19.30
2012,07,12,22,07,19.20
2012,07,12,22,08,19.00
2012,07,12,22,09,18.90
2012,07,12,22,10,18.80
2012,07,12,22,11,18.70
2012,07,12,22,12,18.70
2012,07,12,22,13,18.60
2012,07,12,22,14,18.50
2012,07,12,22,15,18.50
2012,07,12,22,16,18.40
2012,07,12,22,17,18.40
2012,07,12,22,18,18.30
2012,07,12,22,19,18.30
2012,07,12,22,20,18.30
2012,07,12,22,21,18.20
2012,07,12,22,22,18.20
2012,07,12,22,23,18.20
2012,07,12,22,24,18.10
2012,07,12,22,25,18.10
2012,07,12,22,26,18.10
2012,07,12,22,27,18.10
2012,07,12,22,28,18.00
2012,07,12,22,29,18.00
2012,07,12,22,30,18.00
2012,07,12,22,31,17.90
2012,07,12,22,32,17.90
2012,07,12,22,33,17.90
2012,07,12,22,34,17.90
2012,07,12,22,35,17.90
2012,07,12,22,36,17.90
2012,07,12,22,37,17.80
2012,07,12,22,38,17.80
2012,07,12,22,39,17.80
2012,07,12,22,40,17.80
2012,07,12,22,41,17.80
2012,07,12,22,42,17.80
2012,07,12,22,43,17.80
2012,07,12,22,44,17.70
2012,07,12,22,45,17.70
2012,07,12,22,46,17.70
2012,07,12,22,47,17.70
2012,07,12,22,48,17.70
2012,07,12,22,49,17.60
2012,07,12,22,50,17.60
2012,07,12,22,51,17.60
2012,07,12,22,52,17.60
2012,07,12,22,53,17.60
2012,07,12,22,54,17.50
2012,07,12,22,55,17.50
2012,07,12,22,56,17.50
2012,07,12,22,57,17.50
2012,07,12,22,58,17.50
2012,07,12,22,59,17.50
2012,07,12,23,00,17.50
2012,07,12,23,01,17.50
2012,07,12,23,02,17.50
2012,07,12,23,03,17.50
2012,07,12,23,04,17.50
2012,07,12,23,05,17.50
